Volver al catálogo

STARLINK-36763

ActivoComunicacionesVLEO
NORAD 67906·PAYLOAD·🇺🇸 United States

Lanzado Feb 22, 2026 desde Vandenberg Space Force Base

Loading…

Próximos Pases (próximas 24 horas)

TLE

ActualizadoSource: CelesTrak SupGP

Época: Sep 15, 2026, 04:23 UTC

1 67906C 26036C   26258.18312500 -.00028937  00000+0 -10483-2 0  2584
2 67906  42.9991 255.4369 0001285 268.0721 282.7747 15.27586288    10

Sigue STARLINK-36763 en tiempo real con AllMySat

Download on the App Store